Home   Weather   Whitehorse   Past weeks

Flag for Canada Past Weather in Whitehorse, Yukon, Canada — Yesterday and Last 2 Weeks

Now
55 °F

Partly sunny.


Feels Like: 52 °F
Forecast: 51 / 65 °F
Wind: 14 mph from South

Location: Whitehorse

Current Time: May 29, 2017 at 8:20:04 am

Latest Report: May 29, 2017 at 7:00 am


Visibility: 40 mi

Pressure: 29.94 "Hg (27.74 "Hg at 640m altitude)

Humidity: 36%

Dew Point: 28 °F

Location of WhitehorseLocation

Past Weather in Whitehorse — Graph

°F

Whitehorse Temperature Yesterday

Maximum temperature yesterday: 70 °F (at 5:00 pm)
Minimum temperature yesterday: 45 °F (at 5:00 am)
Average temperature yesterday: 58 °F

High & Low Weather Summary for the Past Weeks

 TemperatureHumidityPressure
High70 °F (May 28, 5:00 pm)87% (May 16, 6:00 am)30.23 "Hg (May 16, 6:00 am)
Low30 °F (May 15, 6:00 am)12% (May 27, 4:00 pm)29.59 "Hg (May 14, 1:00 pm)
Average50 °F46%29.94 "Hg
* Reported May 14 7:00 am — May 29 7:00 am, Whitehorse. Weather by CustomWeather, © 2017

Note: Actual official high and low records may vary slightly from our data, if they occured in-between our weather recording intervals... More about our weather records

Advertising

Whitehorse Weather History for the Previous 24 Hours

Scroll right to see more
 ConditionsComfort  
Time TempWeatherWind HumidityBarometerVisibility
7:00 am
Mon, May 29
55 °FPartly sunny.14 mph36%29.94 "Hg40 mi
6:00 am52 °FPartly sunny.10 mph41%29.96 "Hg40 mi
5:00 am52 °FPartly sunny.8 mph41%29.96 "Hg40 mi
4:00 am54 °FOvercast.6 mph35%29.96 "Hg30 mi
3:00 am55 °FOvercast.7 mph33%29.97 "Hg15 mi
2:00 am57 °FPassing clouds.8 mph29%29.97 "Hg15 mi
1:00 am59 °FPassing clouds.9 mph27%29.97 "Hg15 mi
12:00 am61 °FOvercast.8 mph25%29.96 "Hg40 mi
11:00 pm
Sun, May 28
61 °FOvercast.3 mph29%29.97 "Hg40 mi
10:00 pm66 °FOvercast.3 mph22%29.96 "Hg40 mi
9:00 pm68 °FOvercast.8 mph23%29.97 "Hg40 mi
8:00 pm68 °FMore clouds than sun.7 mph21%29.97 "Hg40 mi
7:00 pm70 °FOvercast.12 mph23%29.99 "Hg40 mi
6:00 pm70 °FMore clouds than sun.12 mph23%30.00 "Hg40 mi
5:00 pm70 °FMore clouds than sun.8 mph21%30.03 "Hg40 mi
4:00 pm68 °FMostly cloudy.13 mph23%30.05 "Hg40 mi
3:00 pm66 °FCloudy.10 mph22%30.07 "Hg40 mi
2:00 pm66 °FMore clouds than sun.7 mph22%30.08 "Hg40 mi
1:11 pm64 °FPartly sunny.13 mph22%30.11 "Hg40 mi
12:00 pm61 °FBroken clouds.14 mph23%30.12 "Hg40 mi
11:00 am57 °FPartly sunny.16 mph25%30.15 "Hg40 mi
10:00 am54 °FPartly sunny.17 mph26%30.16 "Hg40 mi
9:00 am50 °FPartly sunny.14 mph32%30.18 "Hg40 mi
8:00 am48 °FPartly sunny.8 mph34%30.18 "Hg40 mi
Weather by CustomWeather, © 2017

See weather overviewHow to use our weather pages